User: anonymous   Login
Location: Drayton Valley
(53.2170°N, 114.9830°W)
Time: 15:00:27
(UTC-06:00)
Language:

Cosmos 1302 Rocket - Orbit

View from above orbital plane
View from above orbital plane
View from above satellite
View from above satellite

Ground track
Ground track

The orbit data is extracted from the following two-line orbital elements,

1 12792U 81084B   17113.62194515 +.00000049 +00000-0 +25127-4 0  9992
2 12792 074.0280 135.8451 0012404 073.0749 287.1763 14.37467184866944
Epoch (UTC): 23 April 2017 14:55:36
Eccentricity: 0.0012404
inclination: 74.0280°
perigee height: 758 km
apogee height: 776 km
right ascension of ascending node: 135.8451°
argument of perigee: 73.0749°
revolutions per day: 14.37467184
mean anomaly at epoch: 287.1763°
orbit number at epoch: 86694

The dashed part of the orbit path shows where the satellite is in the earth's shadow,  

DLR